Weather in Biala Podlaska

Poland     52°02′01″N   23°07′09″E
temp.,
°C
wind,
m/s
gust,
m/s
humid.,
%
clouds,
%
prec.,
mm/h
press.,
hPa
HPBL,
m
15 august, mon
mon1523:00+20e377450 0.0 1011128
02:00+19e488330 0.1 1011176
05:00+17e489219 0.6 1010157
08:00+21ese497614 0.6 1010314
11:00+25ese586199 0.0 1010752
14:00+25ese376799 0.0 1010413
17:00+27ese4755100 0.0 1009810
20:00+23ese346998 0.0 100967
16 august, tue
tue1623:00+21ese337011 0.0 100946
02:00+19e35735 0.0 101075
05:00+18e367422 0.0 101095
08:00+21e366650 0.0 1010261
11:00+26e455268 0.0 1010744
14:00+29e334545 0.0 10101239
17:00+29ene434724 0.0 10101392
20:00+23ene3362100 0.0 101043
17 august, wed
wed1723:00+20e337385 0.3 101142
02:00+19ene3376100 0.3 101145
05:00+20ene237872 0.0 101154
08:00+22ene346810 0.0 1012263
11:00+27ne464747 0.0 10121025
14:00+26nne46505 0.0 1013915
17:00+27ene36455 0.0 1012700
20:00+23ne34605 0.0 101360
18 august, thu
thu1823:00+20nne22645 0.0 101417
02:00+19nne34793 0.0 101370
05:00+18ne34825 0.0 101364
08:00+22ne34712 0.0 1013318
11:00+26ene34580 0.0 1013956
14:00+29ene34481 0.0 10121608
17:00+29e34477 0.0 10121803
20:00+24e23610 0.0 101224
19 august, fri
fri1923:00+22ene22670 0.0 101217
02:00+21e34662 0.0 101158
05:00+19e33694 0.0 101251
08:00+23e46635 0.0 1012252
11:00+28ese455016 0.0 1012941
14:00+30ese4542100 0.0 10111731
17:00+29ese4545100 0.0 10111844
20:00+25se2260100 0.0 101123